Tracking 32936 objects as of 16-Jan-2026
HD Live streaming from Space Station
objects crossing your sky now

STARLINK-2513

Track STARLINK-2513 now!
10-day predictions
STARLINK-2513 is classified as:


NORAD ID: 48317
Int'l Code: 2021-036AT
Perigee: 553.3 km
Apogee: 555.4 km
Inclination: 53.1 °
Period: 95.6 minutes
Semi major axis: 6925 km
RCS: Unknown
Launch date: April 29, 2021
Source: United States (US)
Launch site: AIR FORCE EASTERN TEST RANGE (AFETR)
Your satellite tracking list
Your tracking list is empty




NASA's NSSDC Master Catalog

Two Line Element Set (TLE):
1 48317U 21036AT  26015.85549358  .00001240  00000-0  10215-3 0  9995
2 48317  53.0566 328.7998 0001496  75.1176 284.9978 15.06402032260203
Source of the keplerian elements: AFSPC